Location: Seattle
(47.6060°N, 122.3310°W)
Time: 09:50:19
(UTC-08:00)

Envisat - Visible Passes

Search period start: 21 January 2021 00:00
Search period end: 31 January 2021 00:00
Orbit: 764 x 766 km, 98.1° (Epoch: 21 January)

Date Brightness Start Highest point End Pass type
(mag) Time Alt. Az. Time Alt. Az. Time Alt. Az.
21 Jan 3.6 05:45:06 10° NNE 05:50:07 57° E 05:55:07 10° S visible
21 Jan 6.4 18:46:20 10° WSW 18:47:45 11° W 18:49:11 10° WNW visible
22 Jan 5.0 05:08:44 10° NE 05:13:06 28° E 05:17:25 10° SSE visible
22 Jan 3.3 06:47:28 10° N 06:52:16 43° WNW 06:57:01 10° SW visible
22 Jan 5.6 18:06:25 10° SW 18:10:27 24° W 18:14:31 10° NW visible
23 Jan 6.0 04:33:22 10° ENE 04:35:51 14° E 04:38:20 10° ESE visible
23 Jan 2.9 06:10:27 10° NNE 06:15:34 86° WNW 06:20:39 10° SSW visible
23 Jan 4.2 17:28:28 10° S 17:33:22 48° W 17:38:18 10° NNW visible
24 Jan 4.1 05:33:46 10° NNE 05:38:40 46° E 05:43:32 10° S visible
24 Jan 6.1 18:33:31 10° WSW 18:36:10 14° W 18:38:50 10° NW visible
25 Jan 5.4 04:57:36 10° NE 05:01:35 23° E 05:05:32 10° SE visible
25 Jan 3.1 06:35:58 10° N 06:40:54 53° WNW 06:45:50 10° SW visible
25 Jan 5.3 17:54:33 10° SSW 17:58:56 29° W 18:03:21 10° NW visible
26 Jan 6.3 04:23:15 10° ENE 04:24:16 11° E 04:25:17 10° E visible
26 Jan 3.1 05:59:02 10° NNE 06:04:09 77° ESE 06:09:14 10° S visible
27 Jan 4.5 05:22:28 10° NNE 05:27:12 37° E 05:31:53 10° SSE visible
27 Jan 3.7 07:01:38 10° N 07:06:09 33° WNW 07:10:38 10° SW visible
27 Jan 6.0 18:21:14 10° SW 18:24:36 18° W 18:28:01 10° NW visible
28 Jan 5.7 04:46:33 10° NE 04:50:02 18° E 04:53:31 10° SE visible
28 Jan 3.0 06:24:28 10° N 06:29:32 65° WNW 06:34:33 10° SSW visible
28 Jan 4.9 17:42:48 10° SSW 17:47:26 36° W 17:52:08 10° NNW visible
29 Jan 3.5 05:47:39 10° NNE 05:52:43 62° E 05:57:44 10° S visible
29 Jan 6.6 18:50:02 10° W 18:50:23 10° W 18:50:46 10° W visible
30 Jan 4.9 05:11:14 10° NNE 05:15:42 30° E 05:20:08 10° SSE visible
30 Jan 3.4 06:50:05 10° N 06:54:49 40° WNW 06:59:31 10° SW visible
30 Jan 5.8 18:09:11 10° SW 18:13:04 22° W 18:16:59 10° NW visible
